This is the latest recevied weather packets stored in our database for station/object W4DEX-2. If no packets are shown the sender has not sent any weather packets the latest 10 day(s).
| Time | Temp. | Humidity | Pressure | Rain* | Wind** | Luminosity | Snow |
|---|---|---|---|---|---|---|---|
| 1777538402 | 17.22° C | 74% | 1009.2 hPa | 0 mm | 4.02 m/s, 172° | - | - |
| 1777538102 | 17.22° C | 73% | 1009 hPa | 0 mm | 4.47 m/s, 175° | - | - |
| 1777537202 | 17.22° C | 72% | 1008.8 hPa | 0 mm | 3.58 m/s, 176° | - | - |
| 1777536902 | 17.22° C | 72% | 1008.6 hPa | 0 mm | 4.02 m/s, 173° | - | - |
| 1777536002 | 17.78° C | 71% | 1008.1 hPa | 0 mm | 3.58 m/s, 166° | - | - |
| 1777535702 | 17.78° C | 73% | 1008 hPa | 0 mm | 3.58 m/s, 169° | - | - |
| 1777534802 | 17.78° C | 72% | 1008 hPa | 0 mm | 4.47 m/s, 173° | - | - |
| 1777534502 | 17.78° C | 73% | 1007.8 hPa | 0 mm | 3.58 m/s, 170° | - | - |
| 1777533602 | 17.78° C | 74% | 1007.9 hPa | 0 mm | 4.02 m/s, 163° | - | - |
| 1777533302 | 17.78° C | 75% | 1007.7 hPa | 0 mm | 3.58 m/s, 166° | - | - |
| 1777532702 | 17.78° C | 77% | 1007.7 hPa | 0 mm | 3.58 m/s, 169° | - | - |
| 1777532402 | 17.78° C | 77% | 1007.5 hPa | 0 mm | 4.02 m/s, 175° | - | - |
| 1777531803 | 17.78° C | 76% | 1007.8 hPa | 0 mm | 3.58 m/s, 174° | - | - |
| 1777531502 | 17.78° C | 76% | 1007.8 hPa | 0 mm | 3.58 m/s, 174° | - | - |
| 1777531202 | 18.33° C | 76% | 1007.6 hPa | 0 mm | 3.58 m/s, 178° | - | - |
| 1777530902 | 17.78° C | 77% | 1007.8 hPa | 0 mm | 3.58 m/s, 172° | - | - |
| 1777530602 | 17.78° C | 77% | 1007.8 hPa | 0 mm | 3.13 m/s, 171° | - | - |
| 1777530302 | 18.33° C | 77% | 1008.1 hPa | 0 mm | 3.58 m/s, 173° | - | - |
| 1777530002 | 18.33° C | 78% | 1008.3 hPa | 0 mm | 3.58 m/s, 172° | - | - |
| 1777529102 | 18.33° C | 79% | 1008.4 hPa | 0 mm | 4.02 m/s, 174° | - | - |
| 1777528802 | 17.78° C | 80% | 1008.5 hPa | 0 mm | 3.58 m/s, 169° | - | - |
| 1777527902 | 18.33° C | 80% | 1009 hPa | 0 mm | 4.02 m/s, 177° | - | - |
| 1777527602 | 18.33° C | 81% | 1009 hPa | 0 mm | 3.58 m/s, 177° | - | - |
| 1777526702 | 18.89° C | 79% | 1008.8 hPa | 0 mm | 3.58 m/s, 180° | - | - |
| 1777526402 | 18.89° C | 80% | 1008.8 hPa | 0 mm | 3.58 m/s, 174° | - | - |
* Rain latest hour (hover to see other rain measurements)
** Current wind speed in m/s (hover to see current wind gust speed)